| time (UTC) | temp C | wind direction | speed KPH | gust KPH | rain 1hr cm | rain 24hr cm | rain mn cm | humidity % | barometer mb |
| 20260502210511 | 12 | 350 | 0.0 | 3.2 | 0.08 | 0.56 | 0.56 | 93 | 1011.3 |
| 20260502210031 | 12 | 335 | 0.0 | 3.2 | 0.08 | 0.53 | 0.53 | 93 | 1011.3 |
| 20260502205510 | 12 | 352 | 0.0 | 3.2 | 0.05 | 0.51 | 0.51 | 93 | 1011.4 |
| 20260502205016 | 12 | 32 | 0.0 | 3.2 | 0.03 | 0.48 | 0.48 | 93 | 1011.4 |
| 20260502204515 | 12 | 42 | 0.0 | 3.2 | 0.00 | 0.46 | 0.46 | 93 | 1011.5 |
| 20260502204004 | 12 | 70 | 0.0 | 3.2 | 0.00 | 0.46 | 0.46 | 93 | 1011.5 |
| 20260502203510 | 12 | 352 | 0.0 | 3.2 | 0.00 | 0.46 | 0.46 | 93 | 1011.5 |
| 20260502203020 | 12 | 40 | 1.6 | 3.2 | 0.00 | 0.46 | 0.46 | 93 | 1011.5 |
| 20260502202506 | 12 | 53 | 0.0 | 3.2 | 0.00 | 0.46 | 0.46 | 93 | 1011.6 |
| 20260502202006 | 12 | 9 | 0.0 | 0.0 | 0.00 | 0.46 | 0.46 | 93 | 1011.6 |
| 20260502201524 | 12 | 9 | 0.0 | 3.2 | 0.00 | 0.46 | 0.46 | 93 | 1011.6 |
| 20260502201010 | 12 | 9 | 0.0 | 3.2 | 0.00 | 0.46 | 0.46 | 92 | 1011.7 |
| 20260502200507 | 12 | 360 | 0.0 | 0.0 | 0.03 | 0.46 | 0.46 | 92 | 1011.7 |
| 20260502200027 | 12 | 71 | 0.0 | 0.0 | 0.03 | 0.46 | 0.46 | 92 | 1011.7 |
| 20260502195509 | 12 | 75 | 0.0 | 0.0 | 0.03 | 0.46 | 0.46 | 92 | 1011.7 |
| 20260502195009 | 12 | 60 | 0.0 | 0.0 | 0.03 | 0.46 | 0.46 | 92 | 1011.7 |
| 20260502194526 | 12 | 60 | 0.0 | 0.0 | 0.03 | 0.46 | 0.46 | 91 | 1011.7 |
| 20260502194011 | 12 | 71 | 0.0 | 0.0 | 0.05 | 0.46 | 0.46 | 91 | 1011.8 |
| 20260502193512 | 12 | 34 | 0.0 | 0.0 | 0.08 | 0.46 | 0.46 | 91 | 1011.8 |
| 20260502193016 | 12 | 34 | 0.0 | 0.0 | 0.08 | 0.46 | 0.46 | 91 | 1011.8 |
| 20260502192508 | 12 | 35 | 0.0 | 0.0 | 0.08 | 0.46 | 0.46 | 91 | 1011.8 |
| 20260502192009 | 12 | 30 | 0.0 | 0.0 | 0.08 | 0.46 | 0.46 | 91 | 1011.8 |
| 20260502191519 | 12 | 28 | 0.0 | 0.0 | 0.13 | 0.46 | 0.46 | 91 | 1011.9 |
| 20260502191008 | 13 | 34 | 0.0 | 0.0 | 0.13 | 0.43 | 0.43 | 91 | 1012.1 |
| 20260502190511 | 13 | 34 | 0.0 | 0.0 | 0.13 | 0.41 | 0.41 | 90 | 1012.2 |
| 20260502190031 | 13 | 57 | 0.0 | 0.0 | 0.15 | 0.41 | 0.41 | 90 | 1012.3 |
| 20260502185508 | 13 | 42 | 0.0 | 0.0 | 0.18 | 0.41 | 0.41 | 90 | 1012.2 |
| 20260502185011 | 13 | 37 | 0.0 | 0.0 | 0.20 | 0.41 | 0.41 | 90 | 1012.2 |
| 20260502184532 | 13 | 37 | 0.0 | 0.0 | 0.23 | 0.41 | 0.41 | 90 | 1012.2 |
| 20260502184014 | 13 | 37 | 0.0 | 3.2 | 0.23 | 0.38 | 0.38 | 89 | 1012.3 |
| 20260502183511 | 13 | 52 | 0.0 | 3.2 | 0.25 | 0.36 | 0.36 | 89 | 1012.4 |
| 20260502183028 | 13 | 331 | 0.0 | 3.2 | 0.28 | 0.36 | 0.36 | 89 | 1012.4 |
| 20260502182507 | 13 | 182 | 0.0 | 3.2 | 0.30 | 0.36 | 0.36 | 88 | 1012.5 |
| 20260502182011 | 13 | 198 | 0.0 | 1.6 | 0.33 | 0.36 | 0.36 | 88 | 1012.7 |
| 20260502181517 | 13 | 198 | 0.0 | 3.2 | 0.30 | 0.30 | 0.30 | 87 | 1012.7 |
| 20260502181008 | 13 | 198 | 0.0 | 3.2 | 0.28 | 0.28 | 0.28 | 86 | 1012.8 |
| 20260502180508 | 13 | 213 | 0.0 | 3.2 | 0.28 | 0.28 | 0.28 | 86 | 1012.9 |
| 20260502170508 | 17 | 45 | 0.0 | 3.2 | 0.00 | 0.00 | 0.00 | 68 | 1012.8 |
| 20260502164011 | 17 | 46 | 0.0 | 3.2 | 0.00 | 0.00 | 0.00 | 61 | 1012.9 |
| 20260502163511 | 17 | 57 | 0.0 | 3.2 | 0.00 | 0.00 | 0.00 | 61 | 1012.9 |
| 20260502163030 | 17 | 144 | 0.0 | 3.2 | 0.00 | 0.00 | 0.00 | 61 | 1012.9 |
| 20260502162510 | 17 | 144 | 0.0 | 3.2 | 0.00 | 0.00 | 0.00 | 60 | 1012.9 |
| 20260502162011 | 18 | 338 | 0.0 | 0.0 | 0.00 | 0.00 | 0.00 | 60 | 1013.0 |
| 20260502161525 | 18 | 344 | 0.0 | 3.2 | 0.00 | 0.00 | 0.00 | 60 | 1013.0 |
| 20260502161010 | 18 | 22 | 0.0 | 3.2 | 0.00 | 0.00 | 0.00 | 59 | 1013.0 |
| 20260502160513 | 18 | 42 | 0.0 | 3.2 | 0.00 | 0.00 | 0.00 | 58 | 1013.1 |
| 20260502152008 | 17 | 226 | 0.0 | 3.2 | 0.00 | 0.00 | 0.00 | 59 | 1013.8 |
| 20260502151527 | 17 | 254 | 0.0 | 3.2 | 0.00 | 0.00 | 0.00 | 59 | 1013.9 |
| 20260502151011 | 17 | 244 | 0.0 | 3.2 | 0.00 | 0.00 | 0.00 | 58 | 1013.9 |
| 20260502150510 | 18 | 123 | 0.0 | 4.8 | 0.00 | 0.00 | 0.00 | 58 | 1014.0 |
| 20260502130504 | 18 | 246 | 1.6 | 9.7 | 0.00 | 0.00 | 0.00 | 55 | 1015.9 |
| 20260502123512 | 17 | 214 | 3.2 | 8.0 | 0.00 | 0.00 | 0.00 | 59 | 1016.2 |
| 20260502123028 | 17 | 295 | 1.6 | 11.3 | 0.00 | 0.00 | 0.00 | 58 | 1016.2 |
| 20260502122507 | 17 | 239 | 3.2 | 11.3 | 0.00 | 0.00 | 0.00 | 56 | 1016.3 |
| 20260502122012 | 17 | 207 | 3.2 | 12.9 | 0.00 | 0.00 | 0.00 | 58 | 1016.3 |
| 20260502121524 | 17 | 178 | 3.2 | 12.9 | 0.00 | 0.00 | 0.00 | 55 | 1016.3 |
| 20260502121004 | 17 | 239 | 3.2 | 11.3 | 0.00 | 0.00 | 0.00 | 55 | 1016.3 |
| 20260502120504 | 17 | 273 | 3.2 | 11.3 | 0.00 | 0.00 | 0.00 | 57 | 1016.5 |
| 20260502115504 | 17 | 184 | 4.8 | 12.9 | 0.00 | 0.00 | 0.00 | 58 | 1016.7 |
| 20260502115008 | 17 | 152 | 4.8 | 12.9 | 0.00 | 0.00 | 0.00 | 58 | 1016.9 |
| 20260502114525 | 17 | 147 | 1.6 | 11.3 | 0.00 | 0.00 | 0.00 | 58 | 1016.9 |
| 20260502114007 | 17 | 261 | 3.2 | 12.9 | 0.00 | 0.00 | 0.00 | 59 | 1016.9 |
| 20260502113507 | 17 | 222 | 4.8 | 12.9 | 0.00 | 0.00 | 0.00 | 57 | 1016.9 |
| 20260502113025 | 17 | 190 | 1.6 | 16.1 | 0.00 | 0.00 | 0.00 | 61 | 1016.8 |
| 20260502112508 | 17 | 157 | 4.8 | 16.1 | 0.00 | 0.00 | 0.00 | 60 | 1016.8 |
| 20260502112008 | 17 | 208 | 6.4 | 14.5 | 0.00 | 0.00 | 0.00 | 58 | 1016.8 |
| 20260502111522 | 16 | 174 | 4.8 | 11.3 | 0.00 | 0.00 | 0.00 | 61 | 1016.8 |
| 20260502111008 | 16 | 147 | 3.2 | 11.3 | 0.00 | 0.00 | 0.00 | 60 | 1017.0 |
| 20260502110509 | 17 | 257 | 4.8 | 11.3 | 0.00 | 0.00 | 0.00 | 61 | 1017.1 |
| 20260502110014 | 16 | 219 | 4.8 | 14.5 | 0.00 | 0.00 | 0.00 | 61 | 1017.2 |
| 20260502105512 | 16 | 145 | 6.4 | 16.1 | 0.00 | 0.00 | 0.00 | 61 | 1017.3 |
| 20260502105008 | 16 | 254 | 4.8 | 16.1 | 0.00 | 0.00 | 0.00 | 61 | 1017.3 |
| 20260502104519 | 17 | 178 | 4.8 | 16.1 | 0.00 | 0.00 | 0.00 | 61 | 1017.5 |
| 20260502104010 | 17 | 186 | 6.4 | 16.1 | 0.00 | 0.00 | 0.00 | 61 | 1017.4 |
| 20260502103512 | 17 | 163 | 4.8 | 20.9 | 0.00 | 0.00 | 0.00 | 60 | 1017.4 |
| 20260502103021 | 17 | 191 | 9.7 | 20.9 | 0.00 | 0.00 | 0.00 | 59 | 1017.4 |
| 20260502102510 | 17 | 289 | 4.8 | 14.5 | 0.00 | 0.00 | 0.00 | 62 | 1017.2 |
| 20260502102008 | 16 | 111 | 4.8 | 8.0 | 0.00 | 0.00 | 0.00 | 63 | 1017.3 |
| 20260502101525 | 16 | 145 | 3.2 | 11.3 | 0.00 | 0.00 | 0.00 | 64 | 1017.3 |
| 20260502101011 | 16 | 142 | 4.8 | 9.7 | 0.00 | 0.00 | 0.00 | 64 | 1017.4 |
| 20260502100511 | 16 | 182 | 3.2 | 11.3 | 0.00 | 0.00 | 0.00 | 64 | 1017.4 |
| 20260502091520 | 14 | 251 | 3.2 | 8.0 | 0.00 | 0.00 | 0.00 | 70 | 1017.9 |
| 20260502091010 | 13 | 217 | 1.6 | 6.4 | 0.00 | 0.00 | 0.00 | 72 | 1017.9 |
| 20260502090510 | 13 | 227 | 1.6 | 11.3 | 0.00 | 0.00 | 0.00 | 70 | 1017.9 |
| 20260502071519 | 10 | 224 | 0.0 | 3.2 | 0.00 | 0.00 | 0.00 | 91 | 1018.5 |
| 20260502071008 | 9 | 211 | 0.0 | 3.2 | 0.00 | 0.00 | 0.00 | 92 | 1018.5 |
| 20260502070509 | 9 | 360 | 0.0 | 3.2 | 0.00 | 0.00 | 0.00 | 91 | 1018.4 |
| 20260502070026 | 9 | 360 | 0.0 | 3.2 | 0.00 | 0.00 | 0.00 | 92 | 1018.5 |
| 20260502065511 | 9 | 360 | 1.6 | 3.2 | 0.00 | 0.00 | 0.00 | 92 | 1018.4 |
| 20260502065012 | 9 | 360 | 0.0 | 3.2 | 0.00 | 0.00 | 0.00 | 93 | 1018.3 |
| 20260502064505 | 9 | 360 | 1.6 | 3.2 | 0.00 | 0.00 | 0.00 | 93 | 1018.4 |
| 20260502064003 | 9 | 360 | 1.6 | 3.2 | 0.00 | 0.00 | 0.00 | 94 | 1018.4 |
| 20260502063504 | 9 | 360 | 0.0 | 0.0 | 0.00 | 0.00 | 0.00 | 94 | 1018.3 |
| 20260502063019 | 8 | 360 | 0.0 | 4.8 | 0.00 | 0.00 | 0.00 | 94 | 1018.3 |
| 20260502062507 | 8 | 360 | 0.0 | 4.8 | 0.00 | 0.00 | 0.00 | 94 | 1018.3 |
| 20260502062009 | 8 | 360 | 0.0 | 4.8 | 0.00 | 0.00 | 0.00 | 94 | 1018.3 |
| 20260502061516 | 8 | 360 | 0.0 | 4.8 | 0.00 | 0.00 | 0.00 | 94 | 1018.3 |
| 20260502061009 | 8 | 360 | 1.6 | 4.8 | 0.00 | 0.00 | 0.00 | 94 | 1018.3 |
| 20260502060507 | 8 | 360 | 0.0 | 3.2 | 0.00 | 0.00 | 0.00 | 94 | 1018.2 |
| 20260502060030 | 8 | 360 | 0.0 | 3.2 | 0.00 | 0.00 | 0.00 | 94 | 1018.2 |
| 20260502055506 | 8 | 360 | 0.0 | 3.2 | 0.00 | 0.00 | 0.00 | 94 | 1018.1 |
| 20260502055010 | 8 | 360 | 0.0 | 6.4 | 0.00 | 0.00 | 0.00 | 94 | 1018.1 |
| 20260502054527 | 8 | 360 | 0.0 | 6.4 | 0.00 | 0.00 | 0.00 | 94 | 1018.2 |
| 20260502054009 | 8 | 360 | 1.6 | 4.8 | 0.00 | 0.00 | 0.00 | 94 | 1018.2 |
| 20260502053504 | 8 | 360 | 0.0 | 3.2 | 0.00 | 0.00 | 0.00 | 94 | 1018.2 |
| 20260502053008 | 8 | 360 | 1.6 | 3.2 | 0.00 | 0.00 | 0.00 | 94 | 1018.1 |
| 20260502052507 | 8 | 360 | 1.6 | 3.2 | 0.00 | 0.00 | 0.00 | 94 | 1018.0 |
| 20260502052008 | 8 | 360 | 0.0 | 3.2 | 0.00 | 0.00 | 0.00 | 94 | 1018.0 |
| 20260502051513 | 8 | 360 | 0.0 | 3.2 | 0.00 | 0.00 | 0.00 | 94 | 1018.0 |
| 20260502051008 | 8 | 360 | 0.0 | 3.2 | 0.00 | 0.00 | 0.00 | 94 | 1018.0 |
| 20260502050508 | 8 | 360 | 1.6 | 3.2 | 0.00 | 0.00 | 0.00 | 94 | 1018.0 |
| 20260502050022 | 8 | 360 | 0.0 | 3.2 | 0.00 | 0.00 | 0.00 | 94 | 1017.9 |
| 20260502045508 | 8 | 360 | 0.0 | 3.2 | 0.00 | 0.00 | 0.00 | 94 | 1018.0 |
| 20260502045008 | 8 | 360 | 0.0 | 0.0 | 0.00 | 0.00 | 0.00 | 95 | 1018.0 |
| 20260502044524 | 8 | 360 | 0.0 | 0.0 | 0.00 | 0.00 | 0.00 | 95 | 1018.0 |
| 20260502044009 | 8 | 360 | 0.0 | 0.0 | 0.00 | 0.00 | 0.00 | 95 | 1017.9 |
| 20260502043513 | 8 | 360 | 0.0 | 0.0 | 0.00 | 0.00 | 0.00 | 95 | 1017.9 |
| 20260502043029 | 8 | 360 | 0.0 | 0.0 | 0.00 | 0.00 | 0.00 | 95 | 1017.9 |
| 20260502042509 | 8 | 360 | 0.0 | 0.0 | 0.00 | 0.00 | 0.00 | 95 | 1017.9 |
| 20260502042004 | 8 | 360 | 0.0 | 0.0 | 0.00 | 0.00 | 0.00 | 95 | 1018.0 |
| 20260502041510 | 8 | 360 | 0.0 | 0.0 | 0.00 | 0.00 | 0.00 | 95 | 1018.0 |
| 20260502041007 | 7 | 360 | 0.0 | 0.0 | 0.00 | 0.00 | 0.00 | 95 | 1018.1 |
| 20260502040507 | 7 | 360 | 0.0 | 0.0 | 0.00 | 0.00 | 0.00 | 94 | 1018.1 |
| 20260502040022 | 7 | 360 | 0.0 | 0.0 | 0.00 | 0.00 | 0.00 | 94 | 1018.2 |
| 20260502035507 | 7 | 360 | 0.0 | 0.0 | 0.00 | 0.00 | 0.00 | 93 | 1018.2 |
| 20260502035007 | 7 | 360 | 0.0 | 0.0 | 0.00 | 0.00 | 0.00 | 93 | 1018.3 |
| 20260502034522 | 7 | 360 | 0.0 | 0.0 | 0.00 | 0.00 | 0.00 | 92 | 1018.2 |
| 20260502034008 | 7 | 360 | 0.0 | 0.0 | 0.00 | 0.00 | 0.00 | 92 | 1018.2 |
| 20260502033508 | 7 | 360 | 0.0 | 0.0 | 0.00 | 0.00 | 0.00 | 91 | 1018.3 |
| 20260502033029 | 7 | 360 | 0.0 | 0.0 | 0.00 | 0.00 | 0.00 | 91 | 1018.3 |
| 20260502032508 | 7 | 360 | 0.0 | 0.0 | 0.00 | 0.00 | 0.00 | 91 | 1018.3 |
| 20260502032011 | 7 | 360 | 0.0 | 0.0 | 0.00 | 0.00 | 0.00 | 91 | 1018.3 |
| 20260502031526 | 7 | 360 | 0.0 | 0.0 | 0.00 | 0.00 | 0.00 | 91 | 1018.3 |
| 20260502031004 | 8 | 360 | 0.0 | 0.0 | 0.00 | 0.00 | 0.00 | 91 | 1018.3 |
| 20260502030507 | 8 | 360 | 0.0 | 0.0 | 0.00 | 0.00 | 0.00 | 91 | 1018.3 |
| 20260502030017 | 8 | 360 | 0.0 | 0.0 | 0.00 | 0.00 | 0.00 | 91 | 1018.3 |
| 20260502025506 | 8 | 360 | 0.0 | 0.0 | 0.00 | 0.00 | 0.00 | 91 | 1018.3 |
| 20260502025006 | 8 | 360 | 0.0 | 0.0 | 0.00 | 0.00 | 0.00 | 91 | 1018.4 |
| 20260502024521 | 8 | 360 | 0.0 | 0.0 | 0.00 | 0.00 | 0.00 | 91 | 1018.4 |
| 20260502024010 | 8 | 360 | 0.0 | 0.0 | 0.00 | 0.00 | 0.00 | 91 | 1018.4 |
| 20260502023510 | 8 | 360 | 0.0 | 0.0 | 0.00 | 0.00 | 0.00 | 92 | 1018.4 |
| 20260502023022 | 9 | 360 | 0.0 | 0.0 | 0.00 | 0.00 | 0.00 | 92 | 1018.5 |
| 20260502022507 | 9 | 360 | 0.0 | 0.0 | 0.00 | 0.00 | 0.00 | 92 | 1018.6 |
| 20260502022007 | 9 | 360 | 0.0 | 0.0 | 0.00 | 0.00 | 0.00 | 93 | 1018.6 |
| 20260502021525 | 9 | 360 | 0.0 | 0.0 | 0.00 | 0.00 | 0.00 | 93 | 1018.7 |
| 20260502021009 | 9 | 360 | 0.0 | 0.0 | 0.00 | 0.00 | 0.00 | 93 | 1018.7 |
| 20260502020512 | 8 | 360 | 0.0 | 0.0 | 0.00 | 0.00 | 0.00 | 93 | 1018.7 |
| 20260502020028 | 8 | 360 | 0.0 | 0.0 | 0.00 | 0.00 | 0.00 | 93 | 1018.7 |
| 20260502015504 | 8 | 360 | 0.0 | 0.0 | 0.00 | 0.00 | 0.00 | 92 | 1018.7 |
| 20260502015010 | 8 | 360 | 0.0 | 0.0 | 0.00 | 0.00 | 0.00 | 92 | 1018.7 |
| 20260502014523 | 8 | 360 | 0.0 | 0.0 | 0.00 | 0.00 | 0.00 | 91 | 1018.8 |
| 20260502014009 | 8 | 360 | 0.0 | 0.0 | 0.00 | 0.00 | 0.00 | 90 | 1018.8 |
| 20260502013507 | 8 | 360 | 0.0 | 0.0 | 0.00 | 0.00 | 0.00 | 89 | 1018.9 |
| 20260502013023 | 9 | 360 | 0.0 | 0.0 | 0.00 | 0.00 | 0.00 | 89 | 1018.9 |
| 20260502012508 | 9 | 360 | 0.0 | 0.0 | 0.00 | 0.00 | 0.00 | 89 | 1018.9 |
| 20260502012006 | 9 | 360 | 0.0 | 0.0 | 0.00 | 0.00 | 0.00 | 90 | 1019.0 |
| 20260502011524 | 10 | 360 | 0.0 | 0.0 | 0.00 | 0.00 | 0.00 | 90 | 1019.1 |
| 20260502011003 | 10 | 360 | 0.0 | 0.0 | 0.00 | 0.00 | 0.00 | 90 | 1019.1 |
| 20260502010504 | 10 | 360 | 0.0 | 0.0 | 0.00 | 0.00 | 0.00 | 90 | 1019.1 |
| 20260502010024 | 10 | 360 | 0.0 | 0.0 | 0.00 | 0.00 | 0.00 | 91 | 1019.1 |
| 20260502005505 | 10 | 360 | 0.0 | 0.0 | 0.00 | 0.00 | 0.00 | 91 | 1019.3 |
| 20260502005007 | 10 | 360 | 0.0 | 0.0 | 0.00 | 0.00 | 0.00 | 91 | 1019.3 |
| 20260502004526 | 10 | 360 | 0.0 | 0.0 | 0.00 | 0.00 | 0.00 | 91 | 1019.4 |
| 20260502004007 | 10 | 360 | 0.0 | 0.0 | 0.00 | 0.00 | 0.00 | 91 | 1019.4 |
| 20260502003508 | 10 | 360 | 0.0 | 0.0 | 0.00 | 0.00 | 0.00 | 91 | 1019.4 |
| 20260502003023 | 10 | 360 | 0.0 | 0.0 | 0.00 | 0.00 | 0.00 | 89 | 1019.5 |
| 20260502002509 | 10 | 360 | 0.0 | 0.0 | 0.00 | 0.00 | 0.00 | 89 | 1019.5 |
| 20260502002009 | 10 | 360 | 0.0 | 0.0 | 0.00 | 0.00 | 0.00 | 89 | 1019.5 |
| 20260502001524 | 10 | 360 | 0.0 | 0.0 | 0.00 | 0.00 | 0.00 | 89 | 1019.5 |
| 20260502001009 | 11 | 360 | 0.0 | 0.0 | 0.00 | 0.00 | 0.00 | 89 | 1019.6 |
| 20260502000509 | 11 | 360 | 0.0 | 0.0 | 0.00 | 0.00 | 0.00 | 89 | 1019.5 |
| 20260502000008 | 11 | 360 | 0.0 | 0.0 | 0.00 | 0.00 | 0.00 | 89 | 1019.5 |
| 20260501235503 | 11 | 360 | 0.0 | 0.0 | 0.00 | 0.00 | 0.00 | 89 | 1019.5 |
| 20260501235005 | 11 | 360 | 0.0 | 0.0 | 0.00 | 0.00 | 0.00 | 89 | 1019.5 |
| 20260501234514 | 11 | 360 | 0.0 | 0.0 | 0.00 | 0.00 | 0.00 | 89 | 1019.5 |
| 20260501234013 | 11 | 360 | 0.0 | 0.0 | 0.00 | 0.00 | 0.00 | 89 | 1019.5 |
| 20260501233512 | 11 | 360 | 0.0 | 0.0 | 0.00 | 0.00 | 0.00 | 89 | 1019.5 |
| 20260501233019 | 12 | 360 | 0.0 | 0.0 | 0.00 | 0.00 | 0.00 | 90 | 1019.6 |
| 20260501232509 | 12 | 360 | 0.0 | 0.0 | 0.00 | 0.00 | 0.00 | 90 | 1019.6 |
| 20260501232012 | 12 | 360 | 0.0 | 0.0 | 0.00 | 0.00 | 0.00 | 90 | 1019.7 |
| 20260501231521 | 12 | 360 | 0.0 | 0.0 | 0.00 | 0.00 | 0.00 | 90 | 1019.7 |
| 20260501231007 | 12 | 360 | 0.0 | 0.0 | 0.00 | 0.00 | 0.00 | 90 | 1019.8 |
| 20260501230511 | 12 | 360 | 0.0 | 0.0 | 0.00 | 0.00 | 0.00 | 90 | 1019.8 |
| 20260501230028 | 12 | 360 | 0.0 | 3.2 | 0.00 | 0.00 | 0.00 | 90 | 1019.8 |
| 20260501225510 | 11 | 360 | 0.0 | 3.2 | 0.00 | 0.00 | 0.00 | 91 | 1019.8 |
| 20260501225016 | 11 | 360 | 0.0 | 3.2 | 0.00 | 0.00 | 0.00 | 91 | 1019.7 |
| 20260501224510 | 11 | 360 | 0.0 | 3.2 | 0.00 | 0.00 | 0.00 | 91 | 1019.8 |
| 20260501224011 | 11 | 360 | 0.0 | 3.2 | 0.00 | 0.00 | 0.00 | 91 | 1019.8 |
| 20260501223507 | 11 | 360 | 0.0 | 3.2 | 0.00 | 0.00 | 0.00 | 91 | 1019.7 |
| 20260501223017 | 11 | 360 | 0.0 | 3.2 | 0.00 | 0.00 | 0.00 | 91 | 1019.8 |
| 20260501222509 | 11 | 360 | 0.0 | 0.0 | 0.00 | 0.00 | 0.00 | 91 | 1019.7 |
| 20260501222011 | 11 | 360 | 0.0 | 0.0 | 0.00 | 0.00 | 0.00 | 91 | 1019.7 |
| 20260501221521 | 11 | 360 | 0.0 | 0.0 | 0.00 | 0.00 | 0.00 | 91 | 1019.7 |
| 20260501221012 | 11 | 360 | 0.0 | 0.0 | 0.00 | 0.00 | 0.00 | 91 | 1019.6 |
| 20260501220509 | 11 | 360 | 0.0 | 0.0 | 0.00 | 0.00 | 0.00 | 90 | 1019.6 |
| 20260501220034 | 11 | 360 | 0.0 | 0.0 | 0.00 | 0.00 | 0.00 | 89 | 1019.7 |
| 20260501215510 | 11 | 360 | 0.0 | 0.0 | 0.00 | 0.00 | 0.00 | 89 | 1019.7 |
| 20260501215010 | 11 | 360 | 0.0 | 0.0 | 0.00 | 0.00 | 0.00 | 89 | 1019.7 |
| 20260501214529 | 11 | 360 | 0.0 | 0.0 | 0.00 | 0.00 | 0.00 | 89 | 1019.8 |
| 20260501214006 | 11 | 360 | 0.0 | 0.0 | 0.00 | 0.00 | 0.00 | 89 | 1019.8 |
| 20260501213507 | 11 | 360 | 0.0 | 0.0 | 0.00 | 0.00 | 0.00 | 88 | 1019.9 |
| 20260501213014 | 11 | 360 | 0.0 | 1.6 | 0.00 | 0.00 | 0.00 | 88 | 1019.8 |
| 20260501212504 | 11 | 360 | 0.0 | 1.6 | 0.00 | 0.00 | 0.00 | 86 | 1019.7 |
| 20260501212006 | 11 | 360 | 0.0 | 3.2 | 0.00 | 0.00 | 0.00 | 86 | 1019.6 |
| 20260501211518 | 11 | 360 | 0.0 | 3.2 | 0.00 | 0.00 | 0.00 | 86 | 1019.6 |
| 20260501211008 | 11 | 360 | 0.0 | 0.0 | 0.00 | 0.00 | 0.00 | 85 | 1019.5 |